Volver al catálogo

USA 572

ActivoMilitarVLEO
NORAD 67484·PAYLOAD·🇺🇸 United States

Lanzado Jan 17, 2026 desde Vandenberg Space Force Base

Loading…

Próximos Pases (próximas 24 horas)

TLE

ObsoletoSource: Mike McCants

Época: Jul 28, 2026, 22:10 UTC

1 67484U 26011A   26209.92414558 0.00000000  00000-0  00000-0 0    09
2 67484  70.0170 132.2577 0002000 273.4107  86.5893 14.96713862    05

Sigue USA 572 en tiempo real con AllMySat

Download on the App Store